owner,sensor,date,latitude,longitude,vertical_datum,direction_of_sea_water_velocity,sea_water_speed,upward_sea_water_velocity,qcFlag 
TABS,ioos:station:wmo:42044:1,2012-09-01T00:00:00Z,26.1914,-97.0507,2.0,16.69941564,6.890602296,-99999.0,'11133222,11111222,99999999' 
TABS,ioos:station:wmo:42044:1,2012-09-01T00:30:00Z,26.1914,-97.0507,2.0,2.225605437,3.862913408,-99999.0,'11133222,11111222,99999999' 
TABS,ioos:station:wmo:42044:1,2012-09-01T01:00:00Z,26.1914,-97.0507,2.0,327.5751147,4.774358596,-99999.0,'11133222,11111222,99999999' 
TABS,ioos:station:wmo:42044:1,2012-09-01T01:30:00Z,26.1914,-97.0507,2.0,305.969265,2.162267329,-99999.0,'11133222,11111222,99999999' 
TABS,ioos:station:wmo:42044:1,2012-09-01T02:00:00Z,26.1914,-97.0507,2.0,353.3917616,1.650969412,-99999.0,'11133222,11111222,99999999' 
TABS,ioos:station:wmo:42044:1,2012-09-01T02:30:00Z,26.1914,-97.0507,2.0,322.7698794,4.1320818,-99999.0,'11133222,11111222,99999999' 
TABS,ioos:station:wmo:42044:1,2012-09-01T03:00:00Z,26.1914,-97.0507,2.0,325.7452871,3.375514776,-99999.0,'11133222,11111222,99999999' 
TABS,ioos:station:wmo:42044:1,2012-09-01T03:30:00Z,26.1914,-97.0507,2.0,344.2194941,2.868100417,-99999.0,'11133222,11111222,99999999' 
TABS,ioos:station:wmo:42044:1,2012-09-01T04:00:00Z,26.1914,-97.0507,2.0,324.8787059,6.883204196,-99999.0,'11133222,11111222,99999999' 
TABS,ioos:station:wmo:42044:1,2012-09-01T04:30:00Z,26.1914,-97.0507,2.0,309.9637712,6.040802927,-99999.0,'11133222,11111222,99999999' 
TABS,ioos:station:wmo:42044:1,2012-09-01T05:00:00Z,26.1914,-97.0507,2.0,319.2132737,7.026414448,-99999.0,'11133222,11111222,99999999' 
TABS,ioos:station:wmo:42044:1,2012-09-01T05:30:00Z,26.1914,-97.0507,2.0,318.6622427,8.8569182,-99999.0,'11133222,11111222,99999999' 
TABS,ioos:station:wmo:42044:1,2012-09-01T06:00:00Z,26.1914,-97.0507,2.0,331.1697126,11.42629424,-99999.0,'11111222,11111222,99999999' 
TABS,ioos:station:wmo:42044:1,2012-09-01T06:30:00Z,26.1914,-97.0507,2.0,323.6070851,13.70247423,-99999.0,'11111222,11111222,99999999' 
TABS,ioos:station:wmo:42044:1,2012-09-01T07:00:00Z,26.1914,-97.0507,2.0,319.014482,13.73743062,-99999.0,'11111222,11111222,99999999' 
TABS,ioos:station:wmo:42044:1,2012-09-01T07:30:00Z,26.1914,-97.0507,2.0,333.3269122,11.82882074,-99999.0,'11111222,11111222,99999999' 
TABS,ioos:station:wmo:42044:1,2012-09-01T08:00:00Z,26.1914,-97.0507,2.0,323.2546354,10.14602385,-99999.0,'11111222,11111222,99999999' 
TABS,ioos:station:wmo:42044:1,2012-09-01T08:30:00Z,26.1914,-97.0507,2.0,331.3344473,10.73586978,-99999.0,'11111222,11111222,99999999' 
TABS,ioos:station:wmo:42044:1,2012-09-01T09:00:00Z,26.1914,-97.0507,2.0,324.2327497,13.61852048,-99999.0,'11111222,11111222,99999999' 
TABS,ioos:station:wmo:42044:1,2012-09-01T09:30:00Z,26.1914,-97.0507,2.0,327.7325097,9.7213425,-99999.0,'11133222,11111222,99999999' 
TABS,ioos:station:wmo:42044:1,2012-09-01T10:00:00Z,26.1914,-97.0507,2.0,325.5115423,11.93830809,-99999.0,'11111222,11111222,99999999' 
TABS,ioos:station:wmo:42044:1,2012-09-01T10:30:00Z,26.1914,-97.0507,2.0,340.8081377,10.76849572,-99999.0,'11111222,11111222,99999999' 
TABS,ioos:station:wmo:42044:1,2012-09-01T11:00:00Z,26.1914,-97.0507,2.0,328.1601511,6.615474284,-99999.0,'11133222,11111222,99999999' 
TABS,ioos:station:wmo:42044:1,2012-09-01T11:30:00Z,26.1914,-97.0507,2.0,344.2434271,2.504096644,-99999.0,'11133222,11111222,99999999' 
TABS,ioos:station:wmo:42044:1,2012-09-01T12:00:00Z,26.1914,-97.0507,2.0,324.7390642,13.25122259,-99999.0,'11111222,11111222,99999999' 
TABS,ioos:station:wmo:42044:1,2012-09-01T12:30:00Z,26.1914,-97.0507,2.0,332.7575065,14.74566377,-99999.0,'11111222,11111222,99999999' 
TABS,ioos:station:wmo:42044:1,2012-09-01T13:00:00Z,26.1914,-97.0507,2.0,333.3058861,9.905806378,-99999.0,'11133222,11111222,99999999' 
TABS,ioos:station:wmo:42044:1,2012-09-01T13:30:00Z,26.1914,-97.0507,2.0,341.2112556,14.8408524,-99999.0,'11111222,11111222,99999999' 
TABS,ioos:station:wmo:42044:1,2012-09-01T14:00:00Z,26.1914,-97.0507,2.0,337.3125599,11.04462313,-99999.0,'11111222,11111222,99999999' 
TABS,ioos:station:wmo:42044:1,2012-09-01T14:30:00Z,26.1914,-97.0507,2.0,352.8934018,11.72004266,-99999.0,'11111222,11111222,99999999' 
TABS,ioos:station:wmo:42044:1,2012-09-01T15:00:00Z,26.1914,-97.0507,2.0,332.7926804,11.96371598,-99999.0,'11111222,11111222,99999999' 
TABS,ioos:station:wmo:42044:1,2012-09-01T15:30:00Z,26.1914,-97.0507,2.0,338.0272572,12.4007903,-99999.0,'11111222,11111222,99999999' 
TABS,ioos:station:wmo:42044:1,2012-09-01T16:00:00Z,26.1914,-97.0507,2.0,335.6693637,13.42213843,-99999.0,'11111222,11111222,99999999' 
TABS,ioos:station:wmo:42044:1,2012-09-01T16:30:00Z,26.1914,-97.0507,2.0,336.8171805,14.55531862,-99999.0,'11111222,11111222,99999999' 
TABS,ioos:station:wmo:42044:1,2012-09-01T17:00:00Z,26.1914,-97.0507,2.0,343.3041969,17.1948975,-99999.0,'11111222,11111222,99999999' 
TABS,ioos:station:wmo:42044:1,2012-09-01T17:30:00Z,26.1914,-97.0507,2.0,347.1988674,17.55638061,-99999.0,'11111222,11111222,99999999' 
TABS,ioos:station:wmo:42044:1,2012-09-01T18:00:00Z,26.1914,-97.0507,2.0,341.3664842,15.49209153,-99999.0,'11111222,11111222,99999999' 
TABS,ioos:station:wmo:42044:1,2012-09-01T18:30:00Z,26.1914,-97.0507,2.0,357.3146198,14.72617398,-99999.0,'11111222,11111222,99999999' 
TABS,ioos:station:wmo:42044:1,2012-09-01T19:00:00Z,26.1914,-97.0507,2.0,350.4552685,11.39779365,-99999.0,'11111222,11111222,99999999' 
TABS,ioos:station:wmo:42044:1,2012-09-01T19:30:00Z,26.1914,-97.0507,2.0,1.397388219,10.25304833,-99999.0,'11111222,11111222,99999999' 
TABS,ioos:station:wmo:42044:1,2012-09-01T20:00:00Z,26.1914,-97.0507,2.0,9.976659769,12.6411471,-99999.0,'11111222,11111222,99999999' 
TABS,ioos:station:wmo:42044:1,2012-09-01T20:30:00Z,26.1914,-97.0507,2.0,6.067423052,9.271936152,-99999.0,'11133222,11111222,99999999' 
TABS,ioos:station:wmo:42044:1,2012-09-01T21:00:00Z,26.1914,-97.0507,2.0,350.636495,10.51004282,-99999.0,'11111222,11111222,99999999' 
TABS,ioos:station:wmo:42044:1,2012-09-01T21:30:00Z,26.1914,-97.0507,2.0,9.40514799,9.852436247,-99999.0,'11133222,11111222,99999999' 
TABS,ioos:station:wmo:42044:1,2012-09-01T22:00:00Z,26.1914,-97.0507,2.0,352.5897116,9.45900629,-99999.0,'11133222,11111222,99999999' 
TABS,ioos:station:wmo:42044:1,2012-09-01T22:30:00Z,26.1914,-97.0507,2.0,352.4492287,8.675229104,-99999.0,'11133222,11111222,99999999' 
TABS,ioos:station:wmo:42044:1,2012-09-01T23:00:00Z,26.1914,-97.0507,2.0,355.0011127,9.295359057,-99999.0,'11133222,11111222,99999999' 
TABS,ioos:station:wmo:42044:1,2012-09-01T23:30:00Z,26.1914,-97.0507,2.0,1.537646557,11.55415942,-99999.0,'11111222,11111222,99999999' 
TABS,ioos:station:wmo:42044:1,2012-09-02T00:00:00Z,26.1914,-97.0507,2.0,355.8153041,13.97726726,-99999.0,'11111222,11111222,99999999' 
TABS,ioos:station:wmo:42044:1,2012-09-02T00:30:00Z,26.1914,-97.0507,2.0,350.1442881,12.443653,-99999.0,'11111222,11111222,99999999' 
TABS,ioos:station:wmo:42044:1,2012-09-02T01:00:00Z,26.1914,-97.0507,2.0,342.3934364,12.03372345,-99999.0,'11111222,11111222,99999999' 
TABS,ioos:station:wmo:42044:1,2012-09-02T01:30:00Z,26.1914,-97.0507,2.0,340.2822176,9.603082838,-99999.0,'11133222,11111222,99999999' 
TABS,ioos:station:wmo:42044:1,2012-09-02T02:00:00Z,26.1914,-97.0507,2.0,345.9196327,15.66053,-99999.0,'11111222,11111222,99999999' 
TABS,ioos:station:wmo:42044:1,2012-09-02T02:30:00Z,26.1914,-97.0507,2.0,337.9528562,14.70534937,-99999.0,'11111222,11111222,99999999' 
TABS,ioos:station:wmo:42044:1,2012-09-02T03:00:00Z,26.1914,-97.0507,2.0,344.471745,13.96993916,-99999.0,'11111222,11111222,99999999' 
TABS,ioos:station:wmo:42044:1,2012-09-02T03:30:00Z,26.1914,-97.0507,2.0,337.0589955,15.49562842,-99999.0,'11111222,11111222,99999999' 
TABS,ioos:station:wmo:42044:1,2012-09-02T04:00:00Z,26.1914,-97.0507,2.0,328.6796414,13.21593735,-99999.0,'11111222,11111222,99999999' 
TABS,ioos:station:wmo:42044:1,2012-09-02T04:30:00Z,26.1914,-97.0507,2.0,342.0524371,9.670594604,-99999.0,'11133222,11111222,99999999' 
TABS,ioos:station:wmo:42044:1,2012-09-02T05:00:00Z,26.1914,-97.0507,2.0,345.2269993,18.66708601,-99999.0,'11111222,11111222,99999999' 
TABS,ioos:station:wmo:42044:1,2012-09-02T05:30:00Z,26.1914,-97.0507,2.0,339.3435476,23.98176807,-99999.0,'11111222,11111222,99999999' 
TABS,ioos:station:wmo:42044:1,2012-09-02T06:00:00Z,26.1914,-97.0507,2.0,343.0840431,25.29445789,-99999.0,'11111222,11111222,99999999' 
TABS,ioos:station:wmo:42044:1,2012-09-02T06:30:00Z,26.1914,-97.0507,2.0,343.1783649,26.84889011,-99999.0,'11111222,11111222,99999999' 
TABS,ioos:station:wmo:42044:1,2012-09-02T07:00:00Z,26.1914,-97.0507,2.0,342.3220199,28.25425278,-99999.0,'11111222,11111222,99999999' 
TABS,ioos:station:wmo:42044:1,2012-09-02T07:30:00Z,26.1914,-97.0507,2.0,345.081844,17.01346526,-99999.0,'11111222,11111222,99999999' 
TABS,ioos:station:wmo:42044:1,2012-09-02T08:00:00Z,26.1914,-97.0507,2.0,343.8012591,23.58641346,-99999.0,'11111222,11111222,99999999' 
TABS,ioos:station:wmo:42044:1,2012-09-02T08:30:00Z,26.1914,-97.0507,2.0,344.5260966,22.71333749,-99999.0,'11111222,11111222,99999999' 
TABS,ioos:station:wmo:42044:1,2012-09-02T09:00:00Z,26.1914,-97.0507,2.0,349.4874163,30.30875946,-99999.0,'11111222,11111222,99999999' 
TABS,ioos:station:wmo:42044:1,2012-09-02T09:30:00Z,26.1914,-97.0507,2.0,346.3696558,32.88622964,-99999.0,'11111222,11111222,99999999' 
TABS,ioos:station:wmo:42044:1,2012-09-02T10:00:00Z,26.1914,-97.0507,2.0,353.9923047,27.61165877,-99999.0,'11111222,11111222,99999999' 
TABS,ioos:station:wmo:42044:1,2012-09-02T10:30:00Z,26.1914,-97.0507,2.0,355.5186327,18.55673732,-99999.0,'11111222,11111222,99999999' 
TABS,ioos:station:wmo:42044:1,2012-09-02T11:00:00Z,26.1914,-97.0507,2.0,355.1253853,23.53513331,-99999.0,'11111222,11111222,99999999' 
TABS,ioos:station:wmo:42044:1,2012-09-02T11:30:00Z,26.1914,-97.0507,2.0,357.9865569,12.23755695,-99999.0,'11111222,11111222,99999999' 
TABS,ioos:station:wmo:42044:1,2012-09-02T12:00:00Z,26.1914,-97.0507,2.0,0.422399776,32.57088424,-99999.0,'11111222,11111222,99999999' 
TABS,ioos:station:wmo:42044:1,2012-09-02T12:30:00Z,26.1914,-97.0507,2.0,1.374196819,32.5293529,-99999.0,'11111222,11111222,99999999' 
TABS,ioos:station:wmo:42044:1,2012-09-02T13:00:00Z,26.1914,-97.0507,2.0,6.134691742,31.06790144,-99999.0,'11111222,11111222,99999999' 
TABS,ioos:station:wmo:42044:1,2012-09-02T13:30:00Z,26.1914,-97.0507,2.0,7.165502436,28.22038979,-99999.0,'11111222,11111222,99999999' 
TABS,ioos:station:wmo:42044:1,2012-09-02T14:00:00Z,26.1914,-97.0507,2.0,7.256959976,31.82491634,-99999.0,'11111222,11111222,99999999' 
TABS,ioos:station:wmo:42044:1,2012-09-02T14:30:00Z,26.1914,-97.0507,2.0,8.869715908,28.60202266,-99999.0,'11111222,11111222,99999999' 
TABS,ioos:station:wmo:42044:1,2012-09-02T15:00:00Z,26.1914,-97.0507,2.0,6.529853432,28.05196963,-99999.0,'11111222,11111222,99999999' 
TABS,ioos:station:wmo:42044:1,2012-09-02T15:30:00Z,26.1914,-97.0507,2.0,11.97819651,27.07959564,-99999.0,'11111222,11111222,99999999' 
TABS,ioos:station:wmo:42044:1,2012-09-02T16:00:00Z,26.1914,-97.0507,2.0,12.57354382,30.68590719,-99999.0,'11111222,11111222,99999999' 
TABS,ioos:station:wmo:42044:1,2012-09-02T16:30:00Z,26.1914,-97.0507,2.0,14.97488124,28.13548116,-99999.0,'11111222,11111222,99999999' 
TABS,ioos:station:wmo:42044:1,2012-09-02T17:00:00Z,26.1914,-97.0507,2.0,15.31012184,27.49578149,-99999.0,'11111222,11111222,99999999' 
TABS,ioos:station:wmo:42044:1,2012-09-02T17:30:00Z,26.1914,-97.0507,2.0,19.96958327,25.03524316,-99999.0,'11111222,11111222,99999999' 
TABS,ioos:station:wmo:42044:1,2012-09-02T18:00:00Z,26.1914,-97.0507,2.0,20.42948052,26.98741373,-99999.0,'11111222,11111222,99999999' 
TABS,ioos:station:wmo:42044:1,2012-09-02T18:30:00Z,26.1914,-97.0507,2.0,20.02858115,28.0887255,-99999.0,'11111222,11111222,99999999' 
TABS,ioos:station:wmo:42044:1,2012-09-02T19:00:00Z,26.1914,-97.0507,2.0,19.57065258,27.28632808,-99999.0,'11111222,11111222,99999999' 
TABS,ioos:station:wmo:42044:1,2012-09-02T19:30:00Z,26.1914,-97.0507,2.0,23.86348457,28.74753903,-99999.0,'11111222,11111222,99999999' 
TABS,ioos:station:wmo:42044:1,2012-09-02T20:00:00Z,26.1914,-97.0507,2.0,17.1864656,28.73295321,-99999.0,'11111222,11111222,99999999' 
TABS,ioos:station:wmo:42044:1,2012-09-02T20:30:00Z,26.1914,-97.0507,2.0,15.80192806,27.39527697,-99999.0,'11111222,11111222,99999999' 
TABS,ioos:station:wmo:42044:1,2012-09-02T21:00:00Z,26.1914,-97.0507,2.0,18.20924752,24.06511999,-99999.0,'11111222,11111222,99999999' 
TABS,ioos:station:wmo:42044:1,2012-09-02T21:30:00Z,26.1914,-97.0507,2.0,12.30072057,24.50248967,-99999.0,'11111222,11111222,99999999' 
TABS,ioos:station:wmo:42044:1,2012-09-02T22:00:00Z,26.1914,-97.0507,2.0,13.27271474,19.4700642,-99999.0,'11111222,11111222,99999999' 
TABS,ioos:station:wmo:42044:1,2012-09-02T22:30:00Z,26.1914,-97.0507,2.0,10.86485368,18.6747423,-99999.0,'11111222,11111222,99999999' 
TABS,ioos:station:wmo:42044:1,2012-09-02T23:00:00Z,26.1914,-97.0507,2.0,16.27717077,21.83520094,-99999.0,'11111222,11111222,99999999' 
TABS,ioos:station:wmo:42044:1,2012-09-02T23:30:00Z,26.1914,-97.0507,2.0,13.58277799,20.52400789,-99999.0,'11111222,11111222,99999999' 
TABS,ioos:station:wmo:42044:1,2012-09-03T00:00:00Z,26.1914,-97.0507,2.0,18.16509666,24.82731762,-99999.0,'11111222,11111222,99999999' 
TABS,ioos:station:wmo:42044:1,2012-09-03T00:30:00Z,26.1914,-97.0507,2.0,13.44152409,24.99464343,-99999.0,'11111222,11111222,99999999' 
TABS,ioos:station:wmo:42044:1,2012-09-03T01:00:00Z,26.1914,-97.0507,2.0,15.00076098,19.74277083,-99999.0,'11111222,11111222,99999999' 
TABS,ioos:station:wmo:42044:1,2012-09-03T01:30:00Z,26.1914,-97.0507,2.0,4.712040901,10.10414766,-99999.0,'11111222,11111222,99999999' 
TABS,ioos:station:wmo:42044:1,2012-09-03T02:00:00Z,26.1914,-97.0507,2.0,16.77394652,23.56254655,-99999.0,'11111222,11111222,99999999' 
TABS,ioos:station:wmo:42044:1,2012-09-03T02:30:00Z,26.1914,-97.0507,2.0,19.25406399,15.70863775,-99999.0,'11111222,11111222,99999999' 
TABS,ioos:station:wmo:42044:1,2012-09-03T03:00:00Z,26.1914,-97.0507,2.0,13.03156936,10.51068504,-99999.0,'11111222,11111222,99999999' 
TABS,ioos:station:wmo:42044:1,2012-09-03T03:30:00Z,26.1914,-97.0507,2.0,20.08726284,11.29718992,-99999.0,'11111222,11111222,99999999' 
TABS,ioos:station:wmo:42044:1,2012-09-03T04:00:00Z,26.1914,-97.0507,2.0,7.801211185,9.35659126,-99999.0,'11133222,11111222,99999999' 
TABS,ioos:station:wmo:42044:1,2012-09-03T04:30:00Z,26.1914,-97.0507,2.0,9.395654508,11.27120224,-99999.0,'11111222,11111222,99999999' 
TABS,ioos:station:wmo:42044:1,2012-09-03T05:00:00Z,26.1914,-97.0507,2.0,2.377155715,7.956846109,-99999.0,'11133222,11111222,99999999' 
TABS,ioos:station:wmo:42044:1,2012-09-03T05:30:00Z,26.1914,-97.0507,2.0,359.128198,6.570760991,-99999.0,'11133222,11144222,99999999' 
TABS,ioos:station:wmo:42044:1,2012-09-03T06:00:00Z,26.1914,-97.0507,2.0,4.951151645,6.604642307,-99999.0,'11133222,11111222,99999999' 
TABS,ioos:station:wmo:42044:1,2012-09-03T06:30:00Z,26.1914,-97.0507,2.0,20.00559903,4.384563832,-99999.0,'11133222,11111222,99999999' 
TABS,ioos:station:wmo:42044:1,2012-09-03T07:00:00Z,26.1914,-97.0507,2.0,17.23381081,4.826696593,-99999.0,'11133222,11111222,99999999' 
TABS,ioos:station:wmo:42044:1,2012-09-03T07:30:00Z,26.1914,-97.0507,2.0,357.2411093,5.816743075,-99999.0,'11133222,11111222,99999999' 
TABS,ioos:station:wmo:42044:1,2012-09-03T08:00:00Z,26.1914,-97.0507,2.0,5.02286598,17.81842024,-99999.0,'11111222,11111222,99999999' 
TABS,ioos:station:wmo:42044:1,2012-09-03T08:30:00Z,26.1914,-97.0507,2.0,16.016267,7.792470725,-99999.0,'11133222,11111222,99999999' 
TABS,ioos:station:wmo:42044:1,2012-09-03T09:00:00Z,26.1914,-97.0507,2.0,21.25591265,5.654679478,-99999.0,'11133222,11111222,99999999' 
TABS,ioos:station:wmo:42044:1,2012-09-03T09:30:00Z,26.1914,-97.0507,2.0,9.344860509,6.404998048,-99999.0,'11133222,11111222,99999999' 
TABS,ioos:station:wmo:42044:1,2012-09-03T10:00:00Z,26.1914,-97.0507,2.0,17.79615777,6.805644716,-99999.0,'11133222,11111222,99999999' 
TABS,ioos:station:wmo:42044:1,2012-09-03T10:30:00Z,26.1914,-97.0507,2.0,13.56468618,6.480771559,-99999.0,'11133222,11111222,99999999' 
TABS,ioos:station:wmo:42044:1,2012-09-03T11:00:00Z,26.1914,-97.0507,2.0,26.64066295,13.58188868,-99999.0,'11111222,11111222,99999999' 
TABS,ioos:station:wmo:42044:1,2012-09-03T11:30:00Z,26.1914,-97.0507,2.0,30.75877978,5.748669411,-99999.0,'11133222,11111222,99999999' 
TABS,ioos:station:wmo:42044:1,2012-09-03T12:00:00Z,26.1914,-97.0507,2.0,21.51859141,34.21478335,-99999.0,'11111222,11111222,99999999' 
TABS,ioos:station:wmo:42044:1,2012-09-03T12:30:00Z,26.1914,-97.0507,2.0,22.55186537,32.33233057,-99999.0,'11111222,11111222,99999999' 
TABS,ioos:station:wmo:42044:1,2012-09-03T13:00:00Z,26.1914,-97.0507,2.0,30.67672133,23.95179325,-99999.0,'11111222,11111222,99999999' 
TABS,ioos:station:wmo:42044:1,2012-09-03T13:30:00Z,26.1914,-97.0507,2.0,31.68095814,27.13320106,-99999.0,'11111222,11111222,99999999' 
TABS,ioos:station:wmo:42044:1,2012-09-03T14:00:00Z,26.1914,-97.0507,2.0,35.61541934,32.60981754,-99999.0,'11111222,11111222,99999999' 
TABS,ioos:station:wmo:42044:1,2012-09-03T14:30:00Z,26.1914,-97.0507,2.0,37.11292281,27.36224589,-99999.0,'11111222,11111222,99999999' 
TABS,ioos:station:wmo:42044:1,2012-09-03T15:00:00Z,26.1914,-97.0507,2.0,30.67321321,31.77566679,-99999.0,'11111222,11111222,99999999' 
TABS,ioos:station:wmo:42044:1,2012-09-03T15:30:00Z,26.1914,-97.0507,2.0,37.95752832,34.1421499,-99999.0,'11111222,11111222,99999999' 
TABS,ioos:station:wmo:42044:1,2012-09-03T16:00:00Z,26.1914,-97.0507,2.0,33.81177111,49.67074088,-99999.0,'11111222,11111222,99999999' 
TABS,ioos:station:wmo:42044:1,2012-09-03T16:30:00Z,26.1914,-97.0507,2.0,30.67031057,55.22498438,-99999.0,'11111222,11111222,99999999' 
TABS,ioos:station:wmo:42044:1,2012-09-03T17:00:00Z,26.1914,-97.0507,2.0,27.04322554,70.75612553,-99999.0,'11111222,11111222,99999999' 
TABS,ioos:station:wmo:42044:1,2012-09-03T17:30:00Z,26.1914,-97.0507,2.0,23.1488444,67.8421204,-99999.0,'11111222,11111222,99999999' 
TABS,ioos:station:wmo:42044:1,2012-09-03T18:00:00Z,26.1914,-97.0507,2.0,21.14825008,73.28571552,-99999.0,'11111222,11111222,99999999' 
TABS,ioos:station:wmo:42044:1,2012-09-03T18:30:00Z,26.1914,-97.0507,2.0,22.74563427,74.38479415,-99999.0,'11111222,11111222,99999999' 
TABS,ioos:station:wmo:42044:1,2012-09-03T19:00:00Z,26.1914,-97.0507,2.0,20.63377154,77.81136678,-99999.0,'11111222,11111222,99999999' 
TABS,ioos:station:wmo:42044:1,2012-09-03T19:30:00Z,26.1914,-97.0507,2.0,21.72830773,79.87505806,-99999.0,'11111222,11111222,99999999' 
TABS,ioos:station:wmo:42044:1,2012-09-03T20:00:00Z,26.1914,-97.0507,2.0,18.92439453,74.43324325,-99999.0,'11111222,11111222,99999999' 
TABS,ioos:station:wmo:42044:1,2012-09-03T20:30:00Z,26.1914,-97.0507,2.0,17.94474439,73.15881082,-99999.0,'11111222,11111222,99999999' 
TABS,ioos:station:wmo:42044:1,2012-09-03T21:00:00Z,26.1914,-97.0507,2.0,21.20187799,66.88741062,-99999.0,'11111222,11111222,99999999' 
TABS,ioos:station:wmo:42044:1,2012-09-03T21:30:00Z,26.1914,-97.0507,2.0,21.67541593,67.47070772,-99999.0,'11111222,11111222,99999999' 
TABS,ioos:station:wmo:42044:1,2012-09-03T22:00:00Z,26.1914,-97.0507,2.0,22.65792686,61.62616733,-99999.0,'11111222,11111222,99999999' 
TABS,ioos:station:wmo:42044:1,2012-09-03T22:30:00Z,26.1914,-97.0507,2.0,24.22925968,57.60425766,-99999.0,'11111222,11111222,99999999' 
TABS,ioos:station:wmo:42044:1,2012-09-03T23:00:00Z,26.1914,-97.0507,2.0,28.73239269,53.69061836,-99999.0,'11111222,11111222,99999999' 
TABS,ioos:station:wmo:42044:1,2012-09-03T23:30:00Z,26.1914,-97.0507,2.0,30.53456488,37.53523411,-99999.0,'11111222,11111222,99999999' 
TABS,ioos:station:wmo:42044:1,2012-09-04T00:00:00Z,26.1914,-97.0507,2.0,32.18010668,45.57058042,-99999.0,'11111222,11111222,99999999' 
TABS,ioos:station:wmo:42044:1,2012-09-04T00:30:00Z,26.1914,-97.0507,2.0,24.15480374,25.73307793,-99999.0,'11111222,11111222,99999999' 
TABS,ioos:station:wmo:42044:1,2012-09-04T01:00:00Z,26.1914,-97.0507,2.0,23.69053338,34.42062318,-99999.0,'11111222,11111222,99999999' 
TABS,ioos:station:wmo:42044:1,2012-09-04T01:30:00Z,26.1914,-97.0507,2.0,30.72514569,44.4493892,-99999.0,'11111222,11111222,99999999' 
TABS,ioos:station:wmo:42044:1,2012-09-04T02:00:00Z,26.1914,-97.0507,2.0,18.70065559,44.3514205,-99999.0,'11111222,11111222,99999999' 
TABS,ioos:station:wmo:42044:1,2012-09-04T02:30:00Z,26.1914,-97.0507,2.0,25.43707241,44.74792174,-99999.0,'11111222,11111222,99999999' 
TABS,ioos:station:wmo:42044:1,2012-09-04T03:00:00Z,26.1914,-97.0507,2.0,23.02339348,46.76500508,-99999.0,'11111222,11111222,99999999' 
TABS,ioos:station:wmo:42044:1,2012-09-04T03:30:00Z,26.1914,-97.0507,2.0,24.11643149,43.12393767,-99999.0,'11111222,11111222,99999999' 
TABS,ioos:station:wmo:42044:1,2012-09-04T04:00:00Z,26.1914,-97.0507,2.0,22.03842082,37.28422857,-99999.0,'11111222,11111222,99999999' 
TABS,ioos:station:wmo:42044:1,2012-09-04T04:30:00Z,26.1914,-97.0507,2.0,15.0829712,29.7446802,-99999.0,'11111222,11111222,99999999' 
TABS,ioos:station:wmo:42044:1,2012-09-04T05:00:00Z,26.1914,-97.0507,2.0,18.0913993,34.26389499,-99999.0,'11111222,11111222,99999999' 
TABS,ioos:station:wmo:42044:1,2012-09-04T05:30:00Z,26.1914,-97.0507,2.0,22.3565851,27.60490717,-99999.0,'11111222,11111222,99999999' 
TABS,ioos:station:wmo:42044:1,2012-09-04T06:00:00Z,26.1914,-97.0507,2.0,21.91175276,28.00290878,-99999.0,'11111222,11111222,99999999' 
TABS,ioos:station:wmo:42044:1,2012-09-04T06:30:00Z,26.1914,-97.0507,2.0,30.97131438,26.48624171,-99999.0,'11111222,11111222,99999999' 
TABS,ioos:station:wmo:42044:1,2012-09-04T07:00:00Z,26.1914,-97.0507,2.0,27.86005534,27.9043097,-99999.0,'11111222,11111222,99999999' 
TABS,ioos:station:wmo:42044:1,2012-09-04T07:30:00Z,26.1914,-97.0507,2.0,30.11998118,25.96598737,-99999.0,'11111222,11111222,99999999' 
TABS,ioos:station:wmo:42044:1,2012-09-04T08:00:00Z,26.1914,-97.0507,2.0,22.93563715,24.01882595,-99999.0,'11111222,11111222,99999999' 
TABS,ioos:station:wmo:42044:1,2012-09-04T08:30:00Z,26.1914,-97.0507,2.0,23.60081483,21.70548779,-99999.0,'11111222,11111222,99999999' 
TABS,ioos:station:wmo:42044:1,2012-09-04T09:00:00Z,26.1914,-97.0507,2.0,41.28140231,21.4776279,-99999.0,'11111222,11111222,99999999' 
TABS,ioos:station:wmo:42044:1,2012-09-04T09:30:00Z,26.1914,-97.0507,2.0,36.98542693,18.86603827,-99999.0,'11111222,11111222,99999999' 
TABS,ioos:station:wmo:42044:1,2012-09-04T10:00:00Z,26.1914,-97.0507,2.0,57.6006462,22.65693051,-99999.0,'11111222,11111222,99999999' 
TABS,ioos:station:wmo:42044:1,2012-09-04T10:30:00Z,26.1914,-97.0507,2.0,58.81000539,15.19660817,-99999.0,'11111222,11111222,99999999' 
TABS,ioos:station:wmo:42044:1,2012-09-04T11:00:00Z,26.1914,-97.0507,2.0,57.42948609,15.47354193,-99999.0,'11111222,11111222,99999999' 
TABS,ioos:station:wmo:42044:1,2012-09-04T11:30:00Z,26.1914,-97.0507,2.0,37.74963065,10.81327425,-99999.0,'11111222,11111222,99999999' 
TABS,ioos:station:wmo:42044:1,2012-09-04T12:00:00Z,26.1914,-97.0507,2.0,37.90171754,9.441530596,-99999.0,'11133222,11111222,99999999' 
TABS,ioos:station:wmo:42044:1,2012-09-04T12:30:00Z,26.1914,-97.0507,2.0,45.86048753,16.01070267,-99999.0,'11111222,11111222,99999999' 
TABS,ioos:station:wmo:42044:1,2012-09-04T13:00:00Z,26.1914,-97.0507,2.0,54.21874105,15.58081192,-99999.0,'11111222,11111222,99999999' 
TABS,ioos:station:wmo:42044:1,2012-09-04T13:30:00Z,26.1914,-97.0507,2.0,51.31627895,7.455736047,-99999.0,'11133222,11111222,99999999' 
TABS,ioos:station:wmo:42044:1,2012-09-04T14:00:00Z,26.1914,-97.0507,2.0,61.57053411,7.834858008,-99999.0,'11133222,11111222,99999999' 
TABS,ioos:station:wmo:42044:1,2012-09-04T14:30:00Z,26.1914,-97.0507,2.0,41.56551772,8.380125297,-99999.0,'11133222,11111222,99999999' 
TABS,ioos:station:wmo:42044:1,2012-09-04T15:00:00Z,26.1914,-97.0507,2.0,41.63928789,8.443233978,-99999.0,'11133222,11111222,99999999' 
TABS,ioos:station:wmo:42044:1,2012-09-04T15:30:00Z,26.1914,-97.0507,2.0,37.48194913,8.052459252,-99999.0,'11133222,11111222,99999999' 
TABS,ioos:station:wmo:42044:1,2012-09-04T16:00:00Z,26.1914,-97.0507,2.0,52.32860813,8.148797457,-99999.0,'11133222,11111222,99999999' 